This demonstration page uses our WeatherBlox Daily Observations layout. Learn more.

Left ArrowRight Arrow

39.29038, -76.61219

Hourly Observations for October 25, 2016

Temp ( °F °C ) Dew Point ( °F °C ) Humidity (%) Winds ( mph kmh ) Pressure ( in mb ) Visibility ( mi km ) Precip ( " mm )
12:54 am 00:54 undefined 51 10.6 32 0 48 48 undefined N/A 30.24 1024 N/A 0.00 0.00
1:54 am 01:54 undefined 50 10 32 0 50 50 undefined N/A 30.26 1025 N/A 0.00 0.00
2:54 am 02:54 undefined 49 9.4 31 -0.6 50 50 undefined N/A 30.27 1025 N/A 0.00 0.00
3:54 am 03:54 undefined 48 8.9 31 -0.6 52 52 undefined N/A 30.26 1025 N/A 0.00 0.00
4:54 am 04:54 undefined 48 8.9 31 -0.6 52 52 undefined N/A 30.26 1025 N/A 0.00 0.00
5:54 am 05:54 undefined 47 8.3 31 -0.6 54 54 undefined N/A 30.27 1025 N/A 0.00 0.00
6:54 am 06:54 undefined 46 7.8 31 -0.6 56 56 undefined N/A 30.28 1026 N/A 0.00 0.00
7:54 am 07:54 undefined 47 8.3 32 0 56 56 undefined N/A 30.30 1026 N/A 0.00 0.00
8:54 am 08:54 undefined 50 10 32 0 50 50 undefined N/A 30.31 1027 N/A 0.00 0.00
9:54 am 09:54 undefined 53 11.7 32 0 45 45 undefined N/A 30.31 1026 N/A 0.00 0.00
10:54 am 10:54 undefined 55 12.8 33 0.6 44 44 undefined N/A 30.29 1026 N/A 0.00 0.00
11:54 am 11:54 undefined 56 13.3 32 0 40 40 undefined N/A 30.30 1026 N/A 0.00 0.00
12:54 pm 12:54 undefined 58 14.4 32 0 38 38 undefined N/A 30.29 1026 N/A 0.00 0.00
1:54 pm 13:54 undefined 59 15 32 0 36 36 undefined N/A 30.26 1025 N/A 0.00 0.00
2:54 pm 14:54 undefined 59 15 31 -0.6 35 35 undefined N/A 30.25 1024 N/A 0.00 0.00
3:54 pm 15:54 undefined 59 15 30 -1.1 33 33 undefined N/A 30.26 1025 N/A 0.00 0.00
4:54 pm 16:54 undefined 58 14.4 29 -1.7 33 33 undefined N/A 30.27 1025 N/A 0.00 0.00
5:54 pm 17:54 undefined 57 13.9 32 0 39 39 undefined N/A 30.29 1026 N/A 0.00 0.00
6:54 pm 18:54 undefined 55 12.8 30 -1.1 38 38 undefined N/A 30.33 1027 N/A 0.00 0.00
7:54 pm 19:54 undefined 53 11.7 29 -1.7 40 40 undefined N/A 30.35 1028 N/A 0.00 0.00
8:54 pm 20:54 undefined 53 11.7 28 -2.2 38 38 undefined N/A 30.37 1028 N/A 0.00 0.00
9:54 pm 21:54 undefined 51 10.6 30 -1.1 44 44 undefined N/A 30.39 1029 N/A 0.00 0.00
10:54 pm 22:54 undefined 50 10 30 -1.1 46 46 undefined N/A 30.40 1030 N/A 0.00 0.00
11:54 pm 23:54 undefined 50 10 29 -1.7 44 44 undefined N/A 30.40 1030 N/A 0.00 0.00

Powered by AerisWeather